N443BC KBHM-KPDK

Flight info

Callsign N443BC
Flight time 0h 31m
Altitude 19000
Route MRICA GAD SWTEE SWTEE2
Aircraft C525/L-SDFGRWY/S

Departure

Time 2026-04-20 01:49
Airport Birmingham-Shuttlesworth International Airport (KBHM)

Arrival

Time 2026-04-20 02:20
Airport DeKalb Peachtree Airport (KPDK)
Time Latitude Longitude Altitude Speed Heading
2026-04-20 01:31 33.55669 -86.77323 604 ft 0 kts 57°
2026-04-20 01:38 33.55669 -86.77322 603 ft 0 kts 57°
2026-04-20 01:45 33.55668 -86.77316 603 ft 3 kts 119°
2026-04-20 01:45 33.55681 -86.77276 604 ft 11 kts 53°
2026-04-20 01:45 33.55687 -86.77220 604 ft 6 kts 137°
2026-04-20 01:46 33.55647 -86.77206 604 ft 6 kts 238°
2026-04-20 01:46 33.55622 -86.77242 603 ft 5 kts 204°
2026-04-20 01:46 33.55596 -86.77237 603 ft 4 kts 151°
2026-04-20 01:46 33.55570 -86.77216 603 ft 5 kts 148°
2026-04-20 01:47 33.55558 -86.77206 603 ft 0 kts 143°
2026-04-20 01:47 33.55556 -86.77204 603 ft 1 kts 144°
2026-04-20 01:47 33.55532 -86.77184 603 ft 6 kts 146°
2026-04-20 01:48 33.55501 -86.77148 603 ft 6 kts 124°
2026-04-20 01:48 33.55510 -86.77093 603 ft 10 kts 37°
2026-04-20 01:48 33.55681 -86.76804 606 ft 76 kts 53°
2026-04-20 01:48 33.56094 -86.76088 672 ft 122 kts 56°
2026-04-20 01:49 33.56599 -86.75166 967 ft 147 kts 56°
2026-04-20 01:49 33.57185 -86.74051 1480 ft 164 kts 52°
2026-04-20 01:49 33.57981 -86.73073 2084 ft 171 kts 38°
2026-04-20 01:49 33.58903 -86.72169 2753 ft 177 kts 36°
2026-04-20 01:50 33.59933 -86.71185 3054 ft 203 kts 36°
2026-04-20 01:50 33.61105 -86.70073 3519 ft 218 kts 35°
2026-04-20 01:50 33.62291 -86.68935 3947 ft 220 kts 35°
2026-04-20 01:50 33.63457 -86.67800 4101 ft 211 kts 36°
2026-04-20 01:51 33.64651 -86.66637 4513 ft 224 kts 35°
2026-04-20 01:51 33.65805 -86.65437 5148 ft 225 kts 41°
2026-04-20 01:51 33.66822 -86.64005 5784 ft 228 kts 46°
2026-04-20 01:51 33.67811 -86.62516 6375 ft 231 kts 46°
2026-04-20 01:52 33.68808 -86.60992 6909 ft 235 kts 46°
2026-04-20 01:52 33.69823 -86.59438 7412 ft 239 kts 46°
2026-04-20 01:52 33.70865 -86.57848 7871 ft 244 kts 46°
2026-04-20 01:52 33.71924 -86.56232 8331 ft 248 kts 46°
2026-04-20 01:53 33.73008 -86.54578 8799 ft 252 kts 46°
2026-04-20 01:53 33.74102 -86.52911 9259 ft 255 kts 46°
2026-04-20 01:53 33.75211 -86.51220 9670 ft 259 kts 46°
2026-04-20 01:53 33.76337 -86.49503 10133 ft 262 kts 46°
2026-04-20 01:54 33.77465 -86.47781 10633 ft 262 kts 46°
2026-04-20 01:54 33.78607 -86.46039 10955 ft 267 kts 45°
2026-04-20 01:54 33.79743 -86.44305 11398 ft 268 kts 45°
2026-04-20 01:54 33.80902 -86.42539 11812 ft 270 kts 45°
2026-04-20 01:55 33.82076 -86.40745 12235 ft 272 kts 45°
2026-04-20 01:55 33.83247 -86.38959 12657 ft 274 kts 45°
2026-04-20 01:55 33.84428 -86.37155 13088 ft 275 kts 45°
2026-04-20 01:55 33.85616 -86.35342 13481 ft 278 kts 45°
2026-04-20 01:56 33.86836 -86.33478 13889 ft 280 kts 45°
2026-04-20 01:56 33.88041 -86.31635 14283 ft 281 kts 45°
2026-04-20 01:56 33.89201 -86.29728 14603 ft 290 kts 53°
2026-04-20 01:56 33.90142 -86.27566 15011 ft 292 kts 58°
2026-04-20 01:57 33.91024 -86.25349 15346 ft 296 kts 58°
2026-04-20 01:57 33.91903 -86.23093 15711 ft 297 kts 59°
2026-04-20 01:57 33.92786 -86.20821 16063 ft 299 kts 59°
2026-04-20 01:57 33.93668 -86.18555 16380 ft 302 kts 59°
2026-04-20 01:58 33.94569 -86.16246 16743 ft 303 kts 59°
2026-04-20 01:58 33.95468 -86.13946 17056 ft 308 kts 59°
2026-04-20 01:58 33.96381 -86.11609 17438 ft 309 kts 59°
2026-04-20 01:58 33.97274 -86.09216 17770 ft 316 kts 64°
2026-04-20 01:59 33.97571 -86.06548 18122 ft 324 kts 84°
2026-04-20 01:59 33.97595 -86.03813 18388 ft 330 kts 87°
2026-04-20 01:59 33.97561 -86.01058 18712 ft 332 kts 88°
2026-04-20 01:59 33.97515 -85.98242 18986 ft 336 kts 88°
2026-04-20 02:00 33.97466 -85.95421 19224 ft 340 kts 88°
2026-04-20 02:00 33.97417 -85.92538 19284 ft 351 kts 88°
2026-04-20 02:00 33.97368 -85.89545 19300 ft 361 kts 88°
2026-04-20 02:00 33.97316 -85.86487 19291 ft 370 kts 88°
2026-04-20 02:01 33.97262 -85.83363 19142 ft 368 kts 88°
2026-04-20 02:01 33.97207 -85.80312 18625 ft 362 kts 88°
2026-04-20 02:01 33.97154 -85.77339 18128 ft 356 kts 88°
2026-04-20 02:01 33.97100 -85.74352 17608 ft 349 kts 88°
2026-04-20 02:02 33.97048 -85.71477 17104 ft 344 kts 88°
2026-04-20 02:02 33.96997 -85.68633 16603 ft 339 kts 88°
2026-04-20 02:02 33.96946 -85.65802 16099 ft 336 kts 87°
2026-04-20 02:02 33.96894 -85.63000 15629 ft 331 kts 88°
2026-04-20 02:03 33.96843 -85.60259 15176 ft 326 kts 87°
2026-04-20 02:03 33.96793 -85.57556 14717 ft 322 kts 87°
2026-04-20 02:03 33.96743 -85.54892 14277 ft 319 kts 87°
2026-04-20 02:03 33.96692 -85.52222 13826 ft 317 kts 87°
2026-04-20 02:04 33.96641 -85.49583 13397 ft 313 kts 87°
2026-04-20 02:04 33.96591 -85.46989 12973 ft 310 kts 87°
2026-04-20 02:04 33.96540 -85.44404 12573 ft 308 kts 87°
2026-04-20 02:04 33.96490 -85.41840 12170 ft 305 kts 87°
2026-04-20 02:05 33.96439 -85.39295 11764 ft 303 kts 87°
2026-04-20 02:05 33.96388 -85.36755 11355 ft 302 kts 87°
2026-04-20 02:05 33.96337 -85.34244 10938 ft 302 kts 88°
2026-04-20 02:05 33.96285 -85.31718 10524 ft 301 kts 88°
2026-04-20 02:06 33.96233 -85.29195 10107 ft 300 kts 88°
2026-04-20 02:06 33.96180 -85.26695 9713 ft 299 kts 88°
2026-04-20 02:06 33.96127 -85.24195 9331 ft 296 kts 88°
2026-04-20 02:06 33.96074 -85.21751 8968 ft 293 kts 88°
2026-04-20 02:07 33.96020 -85.19287 8628 ft 290 kts 87°
2026-04-20 02:07 33.95967 -85.16877 8273 ft 287 kts 87°
2026-04-20 02:07 33.95866 -85.14500 8052 ft 281 kts 94°
2026-04-20 02:07 33.95426 -85.12246 7849 ft 278 kts 102°
2026-04-20 02:08 33.94870 -85.10011 7607 ft 272 kts 104°
2026-04-20 02:08 33.94299 -85.07893 7366 ft 263 kts 104°
2026-04-20 02:08 33.93721 -85.05825 7107 ft 258 kts 105°
2026-04-20 02:08 33.93143 -85.03788 6775 ft 257 kts 104°
2026-04-20 02:09 33.92562 -85.01771 6464 ft 257 kts 105°
2026-04-20 02:09 33.91969 -84.99731 6135 ft 255 kts 104°
2026-04-20 02:09 33.91383 -84.97710 5807 ft 253 kts 103°
2026-04-20 02:09 33.90893 -84.95715 5484 ft 251 kts 100°
2026-04-20 02:10 33.90427 -84.93692 5159 ft 252 kts 100°
2026-04-20 02:10 33.89967 -84.91652 5024 ft 249 kts 99°
2026-04-20 02:10 33.89511 -84.89638 5015 ft 253 kts 99°
2026-04-20 02:10 33.89050 -84.87595 5006 ft 251 kts 99°
2026-04-20 02:11 33.88594 -84.85571 5005 ft 249 kts 99°
2026-04-20 02:11 33.88137 -84.83553 5006 ft 249 kts 99°
2026-04-20 02:11 33.87680 -84.81541 5007 ft 250 kts 99°
2026-04-20 02:11 33.87224 -84.79520 5009 ft 252 kts 99°
2026-04-20 02:12 33.86764 -84.77470 5007 ft 255 kts 99°
2026-04-20 02:12 33.86301 -84.75390 5010 ft 256 kts 99°
2026-04-20 02:12 33.85844 -84.73320 5010 ft 258 kts 99°
2026-04-20 02:12 33.85378 -84.71226 5010 ft 259 kts 99°
2026-04-20 02:13 33.84912 -84.69126 5005 ft 260 kts 99°
2026-04-20 02:13 33.84446 -84.67030 5008 ft 260 kts 99°
2026-04-20 02:13 33.83999 -84.65012 5008 ft 261 kts 99°
2026-04-20 02:13 33.83534 -84.62903 5006 ft 261 kts 99°
2026-04-20 02:14 33.83066 -84.60779 5004 ft 261 kts 99°
2026-04-20 02:14 33.82652 -84.58920 4928 ft 248 kts 99°
2026-04-20 02:14 33.82206 -84.56962 4606 ft 239 kts 99°
2026-04-20 02:14 33.81765 -84.55077 4300 ft 232 kts 99°
2026-04-20 02:15 33.81324 -84.53226 3992 ft 227 kts 99°
2026-04-20 02:15 33.80885 -84.51427 3692 ft 223 kts 99°
2026-04-20 02:15 33.80445 -84.49648 3518 ft 212 kts 99°
2026-04-20 02:15 33.80031 -84.48035 3490 ft 197 kts 99°
2026-04-20 02:16 33.79836 -84.46492 3489 ft 176 kts 83°
2026-04-20 02:16 33.79818 -84.45065 3473 ft 170 kts 81°
2026-04-20 02:16 33.79827 -84.43604 3211 ft 177 kts 80°
2026-04-20 02:16 33.79889 -84.42120 2936 ft 177 kts 73°
2026-04-20 02:17 33.80166 -84.40673 2668 ft 180 kts 69°
2026-04-20 02:17 33.80529 -84.39192 2401 ft 191 kts 68°
2026-04-20 02:17 33.80956 -84.37636 2144 ft 202 kts 68°
2026-04-20 02:17 33.81408 -84.36084 2114 ft 179 kts 67°
2026-04-20 02:18 33.81791 -84.34747 2003 ft 160 kts 68°
2026-04-20 02:18 33.82138 -84.33536 1994 ft 144 kts 66°
2026-04-20 02:18 33.82526 -84.32526 1852 ft 124 kts 52°
2026-04-20 02:18 33.83118 -84.31969 1805 ft 103 kts 22°
2026-04-20 02:19 33.83813 -84.31657 1641 ft 105 kts 14°
2026-04-20 02:19 33.84501 -84.31394 1533 ft 103 kts 19°
2026-04-20 02:19 33.85194 -84.31123 1411 ft 106 kts 17°
2026-04-20 02:19 33.85873 -84.30821 1267 ft 98 kts 18°
2026-04-20 02:20 33.86518 -84.30534 1119 ft 98 kts 15°
2026-04-20 02:20 33.87143 -84.30272 992 ft 88 kts 19°
2026-04-20 02:20 33.87633 -84.30054 981 ft 58 kts 21°
2026-04-20 02:20 33.87810 -84.30003 974 ft 7 kts 298°
2026-04-20 02:21 33.87860 -84.30151 974 ft 9 kts 293°
2026-04-20 02:21 33.87880 -84.30218 975 ft 7 kts 293°
2026-04-20 02:21 33.87910 -84.30207 975 ft 7 kts 56°
2026-04-20 02:22 33.87962 -84.30170 974 ft 12 kts 15°
2026-04-20 02:22 33.88015 -84.30219 975 ft 8 kts 333°
2026-04-20 02:22 33.88051 -84.30235 976 ft 0 kts